Location: *
(46.6333°N, 8.8333°E)
Time: 11:20:37
(UTC+00:00)

Daily predictions for brighter satellites

Satellite Brightness Start Highest point End
(mag) Time Altitude Azimuth Time Altitude Azimuth Time Altitude Azimuth
SL-24 R/B 4.3 19:39:06 10° NNE 19:43:30 69° ESE 19:48:31 10° S
Cosmos 2263 Rocket 2.6 19:38:52 10° NNW 19:44:33 69° WSW 19:50:11 10° SSE
Cosmos 1151 Rocket 3.5 19:40:20 10° N 19:44:35 45° ENE 19:48:46 10° SSE
DELTA 2 R/B (1) 4.4 19:44:28 10° SW 19:49:17 30° SSE 19:54:05 10° ESE
USA 186 4.3 19:47:59 10° SW 19:49:27 14° W 19:50:53 10° WNW
Cosmos 2228 Rocket 4.3 19:45:28 10° N 19:49:28 29° ENE 19:53:27 10° SE
In-Cosmos 22 Rocket 4.2 19:44:44 10° S 19:50:06 66° E 19:55:39 10° NNE
CZ-2C R/B 3.1 19:45:21 10° SSE 19:50:41 71° ENE 19:55:44 10° N
Gbstr 26 Del rocket 3.1 19:48:07 10° WSW 19:52:16 70° NNW 19:56:02 10° ENE
SL-08 RB Rocket 3.9 19:49:05 10° S 19:53:33 76° WSW 19:58:03 10° NNW
MetOp-B 4.3 19:50:04 10° SSE 19:55:20 61° ENE 20:00:38 10° N
Resurs 01 Rocket 2.0 19:54:09 10° S 19:58:33 65° WSW 20:02:59 10° NNW
Cosmos 1328 Rocket 3.5 19:57:04 10° N 20:01:27 78° E 20:05:47 10° SSE
SL-8 R/B 3.7 19:58:30 10° WNW 20:03:17 88° N 20:08:06 10° ESE
Cosmos 1892 2.7 20:00:24 10° S 20:04:13 69° E 20:08:02 10° NNE
Iridium 4 Rocket 3.8 20:02:28 10° N 20:08:26 83° E 20:14:09 10° S
ADEOS Rocket 2.7 20:03:36 10° NNE 20:09:14 83° ESE 20:14:43 10° SSW
USA 229 DEB 4.0 20:03:13 10° S 20:09:18 41° ESE 20:15:37 10° NE
USA 229 4.0 20:03:21 10° S 20:09:25 41° ESE 20:15:43 10° NE
MTI 3.7 20:07:57 10° NNE 20:11:08 88° E 20:14:18 10° SSW
TIMED 4.5 20:07:29 10° SSW 20:11:49 71° ESE 20:16:11 10° NNE
H-2A R/B 3.3 20:07:27 10° SSW 20:12:35 42° W 20:17:38 10° NNW
Cosmos 2151 3.3 20:08:22 10° SSW 20:12:38 69° W 20:16:57 10° N
NOSS 3-1 (A) 4.5 20:09:01 10° SSE 20:13:03 21° ESE 20:17:27 10° ENE
Cosmos 1500 Rocket 4.0 20:11:31 10° SSE 20:15:45 44° E 20:20:00 10° NNE
Cosmos 407 Rocket 3.9 20:12:36 10° S 20:17:35 43° ESE 20:22:38 10° NE
Cosmos 614 Rocket 4.5 20:14:20 10° S 20:18:58 38° ESE 20:23:40 10° NE
CZ-4B DEB 4.4 20:15:56 11° SSE 20:19:11 79° ENE 20:22:36 10° N
Lacrosse 5 rocket 3.7 20:16:46 10° NW 20:20:30 23° N 20:24:13 10° ENE
ERS-1 Rocket 3.3 20:17:31 12° SE 20:21:57 52° ENE 20:26:51 10° N
IGS 5A 4.0 20:21:41 14° SE 20:24:54 43° ENE 20:28:52 10° N
Cosmos 1408 2.7 20:21:20 10° S 20:24:59 55° E 20:28:39 10° NNE
Cosmos 1844 4.2 20:19:45 10° NNW 20:25:13 50° ENE 20:29:47 15° SE
Cosmos 1190 Rocket 4.3 20:20:43 10° S 20:25:37 45° ESE 20:30:35 10° NNE
COSMOS 2428 3.8 20:22:50 12° SSE 20:26:57 26° ESE 20:31:35 10° NE
Nadezhda 4 Rocket 4.0 20:22:36 10° N 20:28:57 86° E 20:35:11 10° S
Thor Agena Rocket 3.9 20:27:14 10° NNE 20:32:03 43° E 20:36:27 12° S
USA 81 4.4 20:28:47 10° N 20:33:55 50° E 20:37:55 16° SSE
Cosmos 2360 Rocket 2.1 20:28:51 10° SSW 20:34:29 79° ESE 20:40:08 10° NNE
USA 215 3.6 20:28:19 10° NE 20:34:50 71° NNW 20:41:21 10° WSW
SL-4 R/B 2.5 20:31:17 10° SW 20:36:01 55° SE 20:40:44 10° ENE
Cosmos 1782 4.3 20:33:25 10° NNE 20:36:41 23° ENE 20:38:43 16° ESE
SPOT 5 3.2 20:33:37 16° SE 20:37:29 54° ENE 20:42:10 10° N
BREEZE-M DEB (TANK) 1.8 20:35:21 10° WSW 20:38:07 74° NNW 20:40:17 10° ENE
Cosmos 2237 Rocket 4.0 20:37:53 11° ESE 20:38:52 12° E 20:40:47 10° ENE
Cosmos 2034 Rocket 4.2 20:34:05 10° SSW 20:40:20 79° W 20:46:41 10° N
Cosmos 1607 4.1 20:34:31 10° NNW 20:40:40 65° NE 20:45:26 17° SE
Cosmos 1743 Rocket 3.6 20:39:18 10° S 20:43:41 84° WNW 20:48:03 10° N
Cosmos 1356 Rocket 3.5 20:43:14 10° NNW 20:47:34 87° W 20:50:46 18° S
CZ-2C R/B 2.5 20:42:34 10° NNE 20:47:49 84° ESE 20:52:59 10° SSW
Cosmos 1606 2.8 20:44:23 10° N 20:48:07 60° E 20:50:16 23° SSE
Landsat 7 3.8 20:45:14 17° SSE 20:48:56 87° ENE 20:53:44 10° NNW
Cosmos 1092 Rocket 4.0 20:43:02 10° N 20:49:18 81° E 20:54:21 16° SSE
Cosmos 1515 Rocket 4.3 20:47:24 10° NNW 20:51:36 48° W 20:55:42 10° SSW
Cosmos 292 Rocket 3.8 20:50:22 10° NNW 20:55:14 89° ENE 20:58:23 22° SSE
Cosmos 1825 2.4 20:59:13 12° SSW 21:02:35 68° W 21:06:22 10° N
SPOT 1/Viking Rocket 3.7 20:58:55 17° S 21:02:55 73° WSW 21:08:08 10° NNW
Cosmos 2219 Rocket 2.5 20:59:12 16° S 21:03:27 46° ESE 21:08:51 10° NE
ISS -2.7 21:01:48 10° W 21:05:03 47° NNW 21:08:18 10° ENE
ATLAS CENTAUR R/B 3.1 21:01:26 10° NNW 21:05:40 30° NE 21:08:54 14° E
Lacrosse 5 3.6 21:01:26 10° NW 21:05:53 30° NNE 21:10:19 10° ENE
Cosmos 2322 Rocket 4.0 21:01:28 10° WSW 21:06:38 34° NW 21:11:49 10° NNE
Mayak 0.5 21:05:19 10° NE 21:08:06 17° E 21:08:34 17° E
Cosmos 1805 Rocket 3.5 21:05:42 23° S 21:08:20 65° E 21:12:39 10° NNE
ASTEX 1 3.8 21:04:32 10° NNE 21:09:22 46° E 21:11:49 26° SSE
USA 267 3.6 21:05:23 21° SSE 21:09:49 55° SW 21:16:15 10° WNW
Cosmos 2333 4.1 21:06:12 10° SSW 21:11:53 77° ESE 21:17:34 10° NNE
USA 245 4.4 21:11:11 13° SW 21:12:08 16° W 21:13:42 10° NW
Cosmos 1634 Rocket 4.0 21:07:39 14° S 21:13:04 83° E 21:19:19 10° N
SL-16 R/B 4.4 21:09:24 10° WSW 21:14:13 28° NW 21:19:05 10° N
Cosmos 2278 Rocket 3.0 21:09:00 10° NNW 21:14:24 42° NE 21:17:50 21° ESE
Cosmos 1263 4.1 21:12:18 10° N 21:15:18 83° ENE 21:16:19 41° SSE
COSMOS 2455 4.5 21:15:50 15° ESE 21:16:10 15° ESE 21:19:29 10° ENE
Terra 1.8 21:15:29 27° SSE 21:18:08 87° ENE 21:22:56 10° NNW
Cosmos 2333 Rocket 2.3 21:13:48 16° S 21:18:17 59° ESE 21:23:53 10° NNE
Cosmos 1818 3.6 21:13:41 10° NW 21:19:11 82° SW 21:22:08 28° SSE
Cosmos 2026 Rocket 3.9 21:13:56 10° N 21:20:03 87° W 21:24:08 22° S
NOSS 3-1 (C) 3.3 21:15:21 10° SW 21:20:56 90° SE 21:27:27 10° NE
MOS 1 Rocket 3.3 21:18:07 10° NNE 21:22:36 61° E 21:24:55 29° S
Cosmos 1844 Rocket 3.2 21:17:22 10° NW 21:22:52 51° WSW 21:26:21 22° S
Meteor 2-3 Rocket 3.9 21:17:26 12° SSW 21:22:54 78° WNW 21:28:45 10° N
CARTOSAT-1 4.0 21:22:47 24° S 21:25:12 57° W 21:29:29 10° NNW
Cosmos 2142 Rocket 4.5 21:23:01 19° S 21:27:46 84° E 21:34:13 10° N
Cosmos 2322 4.1 21:22:32 10° SW 21:28:08 66° WNW 21:33:48 10° NNE
Cosmos 1666 Rocket 3.7 21:27:20 33° SSE 21:29:08 60° E 21:33:33 10° NNE
Cosmos 1633 Rocket 3.3 21:28:13 35° SE 21:29:35 49° E 21:33:47 10° NNE
Cosmos 2084 Rocket 3.9 21:29:22 10° NW 21:33:35 49° WSW 21:35:02 34° S
Cosmos 1655 Rocket 4.1 21:27:23 10° N 21:33:38 65° E 21:36:53 29° SSE
DELTA 2 R/B (1) 4.0 21:29:50 10° WSW 21:35:03 41° S 21:36:55 31° SE
Cosmos 676 Rocket 4.1 21:31:55 12° SSW 21:36:48 76° WNW 21:42:06 10° NNE
Gbstr 26 Del rocket 4.1 21:35:51 10° WNW 21:39:27 37° N 21:42:57 10° ENE
ALOS 2 4.5 21:37:43 16° E 21:39:27 19° ENE 21:42:34 10° NNE
Cosmos 1867 3.6 21:41:23 27° S 21:44:09 56° ESE 21:49:31 10° NE
Cosmos 1862 Rocket 3.9 21:40:21 10° N 21:44:36 50° ENE 21:45:47 38° SE
Landsat 4 4.1 21:41:08 10° N 21:44:47 59° WNW 21:46:35 27° SW
Sich 1 3.1 21:42:57 29° SSW 21:45:02 72° W 21:49:19 10° N
Cosmos 2180 Rocket 4.4 21:42:10 28° S 21:45:30 72° E 21:51:38 10° NNE
SL-8 R/B 4.4 21:41:14 10° W 21:45:34 35° SW 21:46:24 33° SSW
Cosmos 1741 Rocket 4.2 21:46:01 36° SSE 21:47:49 53° ESE 21:52:53 10° NNE
Cosmos 1470 Rocket 4.0 21:48:17 38° ESE 21:49:06 43° E 21:53:16 10° NNE
Cosmos 1954 Rocket 4.4 21:45:08 12° SSW 21:49:56 64° WNW 21:55:12 10° NNE
GP-B 4.1 21:46:27 10° NNE 21:50:26 32° E 21:51:16 29° ESE
Cosmos 1140 Rocket 4.3 21:46:59 10° SW 21:51:59 49° WNW 21:57:03 10° NNE
Cosmos 1850 Rocket 4.0 21:55:09 35° S 21:57:21 67° ESE 22:02:41 10° NNE
IRAS Rocket 4.3 21:54:54 33° S 21:57:30 74° WSW 22:03:09 10° NNW
USA 229 DEB 4.5 21:53:39 10° WSW 22:00:07 52° NW 22:06:55 10° NE
USA 229 4.5 21:53:45 10° WSW 22:00:13 52° NW 22:07:01 10° NE
Lacrosse 5 rocket 2.4 21:56:10 10° NW 22:00:39 48° NNE 22:03:08 23° E
NOSS 3-1 (A) 3.5 21:57:26 10° SW 22:03:03 74° NW 22:09:37 10° NE
Cosmos 1633 2.4 22:03:36 65° ESE 22:03:41 66° E 22:07:15 10° NNE
Cosmos 1812 3.3 22:00:31 10° N 22:04:13 42° ENE 22:04:38 41° E
SL-16 R/B 3.4 22:06:05 24° ESE 22:06:32 24° ESE 22:11:00 10° NE
COSMOS 2428 3.3 22:05:13 10° SW 22:10:50 56° WNW 22:16:29 10° NNE
Cosmos 2266 Rocket 4.0 22:04:34 10° N 22:10:59 79° E 22:13:39 37° SSE
SeaSat 1 3.5 22:07:47 10° NE 22:11:56 27° ESE 22:11:56 27° ESE
Dummy Sat-01 4.5 22:12:43 72° SSE 22:13:01 81° E 22:16:48 10° N
Cosmos 1782 4.3 22:09:29 10° NNW 22:13:02 30° W 22:14:21 24° SW
NOSS 2-3 (E) 3.7 22:11:55 31° SW 22:14:05 89° SE 22:19:23 10° NE
Helios 1A 2.9 22:13:39 58° S 22:14:27 86° WSW 22:18:39 10° NNW
Cosmos 1980 3.6 22:12:40 36° S 22:15:05 75° ESE 22:20:47 10° NNE
SL-4 R/B 3.0 22:11:05 10° W 22:15:52 57° NNW 22:20:32 10° ENE
NOSS 2-3 (D) 3.6 22:15:01 34° SW 22:16:59 88° SE 22:22:16 10° NE
Cosmos 841 Rocket 3.9 22:14:47 10° NNW 22:19:51 52° ENE 22:21:35 36° ESE
Cosmos 2237 Rocket 2.1 22:19:40 37° SSW 22:21:56 78° ESE 22:27:36 10° NNE
Cosmos 1315 Rocket 4.0 22:18:39 10° N 22:22:11 30° ENE 22:22:40 29° E
Cosmos 1400 Rocket 2.8 22:18:43 10° N 22:22:53 75° E 22:23:22 65° SE
Cosmos 1862 3.6 22:22:57 47° SW 22:23:49 61° W 22:27:47 10° N
Cosmos 1763 Rocket 3.4 22:20:14 10° NNW 22:25:27 88° WSW 22:26:57 48° SSE
Cosmos 468 Rocket 4.2 22:26:10 10° NNW 22:31:22 60° WSW 22:32:50 44° SSW
Meteor 1-29 4.2 22:30:15 10° NNE 22:32:41 30° ENE 22:32:41 30° ENE
Nimbus 7 Rocket 4.4 22:28:21 10° NNE 22:34:19 83° WNW 22:37:03 35° SSW
JB-3 4.2 22:31:33 10° NNE 22:35:44 83° ESE 22:36:09 71° S
Cosmos 1437 4.5 22:36:54 24° NE 22:36:54 24° NE 22:38:36 10° NNE
NOSS 0 Rocket 4.2 22:37:27 21° SW 22:41:39 67° WNW 22:47:49 10° NNE
ISS -2.0 22:39:06 10° WNW 22:42:11 33° N 22:45:15 10° ENE
Mayak -0.6 22:39:51 10° N 22:43:58 50° WNW 22:45:09 38° WSW
ATLAS CENTAUR R/B 1.9 22:40:20 10° NW 22:44:52 48° WSW 22:45:05 48° SW
Cosmos 192 4.3 22:42:03 10° NNW 22:47:00 79° ENE 22:48:03 55° SE
Cosmos 2219 Rocket 3.7 22:42:29 10° WSW 22:47:34 33° NW 22:52:40 10° NNE
Helios 1B rocket 2.3 22:45:05 10° NNE 22:49:15 84° ESE 22:49:33 76° SSE
Lacrosse 5 1.9 22:44:26 10° NW 22:49:31 75° NE 22:51:22 40° ESE
Lacrosse 4 Rocket 1.7 22:50:03 53° ESE 22:50:03 53° ESE 22:54:18 10° NE
Cosmos 1943 Rocket 3.8 22:46:27 10° N 22:51:05 27° NE 22:55:04 13° ESE
ATLAS 5 CENTAUR R/B 3.2 22:46:29 10° NNW 22:51:54 46° NE 22:56:32 17° ESE
Cosmos 2297 3.7 22:49:00 10° NNW 22:54:41 80° ENE 22:56:27 46° SE
ATLAS 2AS CENTAUR R/B 4.2 22:53:44 23° SE 22:55:19 24° ESE 23:01:27 10° ENE
Terra 4.2 22:54:50 10° WSW 22:56:32 12° W 22:58:14 10° WNW
Cosmos 2278 Rocket 3.1 22:53:18 10° NW 22:58:22 34° WSW 22:59:40 31° SW
Cosmos 1703 Rocket 3.5 22:54:33 10° NNW 22:59:01 74° W 22:59:32 65° SSW
Cosmos 2208 Rocket 4.4 22:53:47 10° NNW 22:59:04 52° WSW 23:00:13 43° SW
COSMOS 2455 2.7 22:58:56 41° SSW 23:01:12 85° ESE 23:07:16 10° NE
Cosmos 2333 Rocket 4.0 22:58:07 10° WSW 23:02:57 28° NW 23:07:47 10° N
Meteor 1-25 Rocket 4.3 23:02:44 49° SSE 23:04:02 64° E 23:09:35 10° NNE
BREEZE-M DEB (TANK) 4.0 22:59:41 10° W 23:04:03 69° NNW 23:15:43 10° ENE
Okean 1-7 2.9 23:02:10 10° NNW 23:06:28 75° W 23:06:48 71° SW
Meteor 1-20 Rocket 4.3 23:05:26 48° SSE 23:06:57 67° E 23:12:45 10° NNE
Meteor 1-18 Rocket 4.4 23:01:56 10° N 23:07:31 64° ENE 23:09:07 44° SE
ALOS 2 2.9 23:15:06 49° WSW 23:15:26 50° W 23:19:43 10° NNW
Cosmos 1814 Rocket 4.3 23:15:27 10° NNW 23:20:23 48° WSW 23:21:04 45° SW
Cosmos 2221 Rocket 3.5 23:15:58 10° N 23:20:31 77° E 23:20:59 68° SE
ERS-2 2.2 23:21:51 73° NW 23:21:51 73° NW 23:25:14 10° NNW
Cosmos 2369 Rocket 3.2 23:17:44 10° NNW 23:23:10 41° NE 23:26:32 21° ESE
Okean 1 3.2 23:20:45 10° N 23:24:48 77° E 23:24:49 77° E
Gbstr 26 Del rocket 3.0 23:22:55 10° WNW 23:26:38 63° NNE 23:27:19 52° ENE
Cosmos 1869 Rocket 3.8 23:33:12 52° WSW 23:33:44 56° WNW 23:38:04 10° N
Cosmos 540 Rocket 3.8 23:31:49 10° NNW 23:36:42 46° WSW 23:37:17 44° SW
Cosmos 1603 4.4 23:36:20 36° SE 23:37:15 38° ESE 23:42:26 10° NE
BREEZE-M DEB (TANK) 3.5 23:29:15 10° W 23:37:18 64° N 23:38:58 23° ENE
Lacrosse 5 rocket 2.6 23:35:36 10° WNW 23:38:45 33° W 23:38:45 33° W
Iridium 2 3.9 23:40:09 61° ENE 23:40:09 61° ENE 23:43:44 10° N
CZ-4 R/B 4.0 23:37:02 10° N 23:41:42 65° WNW 23:42:39 51° SW
SeaSat 1 3.1 23:44:55 10° NNE 23:49:41 49° NW 23:51:42 31° WSW
SL-16 R/B 2.6 23:47:56 34° WSW 23:50:15 58° WNW 23:55:51 10° NNE
Cosmos 1500 4.4 23:56:09 30° E 23:56:12 30° E 23:59:35 10° NNE
